Meteo orario Abovyan

Oggi, 19 Giugno, Sabato

Tempo Temperatura Precipitazioni Vento Pressione Umidità
00:00 +21°C° 0 mm 2 m/s 670 mm Hg 57%
01:00 +21°C° 0 mm 2 m/s 670 mm Hg 57%
02:00 +20°C° 0 mm 2 m/s 670 mm Hg 58%
03:00 +20°C° 0 mm 2 m/s 670 mm Hg 59%
04:00 +21°C° 0 mm 2 m/s 670 mm Hg 56%
05:00 +23°C° 0 mm 2 m/s 671 mm Hg 54%
06:00 +23°C° 0 mm 1 m/s 671 mm Hg 51%
07:00 +26°C° 0 mm 2 m/s 671 mm Hg 45%
08:00 +28°C° 0 mm 2 m/s 672 mm Hg 38%
09:00 +30°C° 0 mm 2 m/s 672 mm Hg 31%
10:00 +33°C° 0 mm 3 m/s 672 mm Hg 28%
11:00 +34°C° 0 mm 3 m/s 671 mm Hg 25%
12:00 +36°C° 0 mm 4 m/s 671 mm Hg 22%
13:00 +36°C° 0 mm 4 m/s 671 mm Hg 22%
14:00 +37°C° 0 mm 5 m/s 671 mm Hg 21%
15:00 +37°C° 0 mm 5 m/s 670 mm Hg 21%
16:00 +36°C° 0 mm 5 m/s 670 mm Hg 25%
17:00 +35°C° 0 mm 6 m/s 670 mm Hg 29%
18:00 +34°C° 0 mm 6 m/s 670 mm Hg 33%
19:00 +32°C° 0 mm 5 m/s 670 mm Hg 35%
20:00 +29°C° 0 mm 5 m/s 670 mm Hg 37%
21:00 +27°C° 0 mm 4 m/s 670 mm Hg 40%
22:00 +26°C° 0 mm 4 m/s 670 mm Hg 41%
23:00 +24°C° 0 mm 3 m/s 670 mm Hg 41%

Domani, 20 Giugno, Domenica

Tempo Temperatura Precipitazioni Vento Pressione Umidità
00:00 +23°C° 0 mm 2 m/s 670 mm Hg 42%
01:00 +23°C° 0 mm 2 m/s 670 mm Hg 43%
02:00 +21°C° 0 mm 2 m/s 670 mm Hg 43%
03:00 +21°C° 0 mm 2 m/s 670 mm Hg 44%
04:00 +21°C° 0 mm 2 m/s 670 mm Hg 43%
05:00 +23°C° 0 mm 2 m/s 670 mm Hg 42%
06:00 +24°C° 0 mm 1 m/s 671 mm Hg 41%
07:00 +26°C° 0 mm 2 m/s 671 mm Hg 36%
08:00 +29°C° 0 mm 2 m/s 671 mm Hg 31%
09:00 +31°C° 0 mm 2 m/s 672 mm Hg 26%
10:00 +32°C° 0 mm 2 m/s 672 mm Hg 24%
11:00 +35°C° 0 mm 3 m/s 672 mm Hg 21%
12:00 +37°C° 0 mm 3 m/s 672 mm Hg 19%
13:00 +37°C° 0 mm 4 m/s 672 mm Hg 18%
14:00 +38°C° 0 mm 4 m/s 671 mm Hg 18%
15:00 +40°C° 0 mm 5 m/s 671 mm Hg 17%
16:00 +37°C° 0 mm 5 m/s 671 mm Hg 22%
17:00 +36°C° 0 mm 6 m/s 670 mm Hg 27%
18:00 +35°C° 0 mm 6 m/s 670 mm Hg 32%
19:00 +32°C° 0 mm 5 m/s 670 mm Hg 36%
20:00 +28°C° 0 mm 4 m/s 670 mm Hg 41%
21:00 +25°C° 0 mm 4 m/s 670 mm Hg 45%
22:00 +25°C° 0 mm 3 m/s 670 mm Hg 46%
23:00 +24°C° 0 mm 3 m/s 670 mm Hg 46%

Dopodomani, 21 Giugno, Lunedi

Tempo Temperatura Precipitazioni Vento Pressione Umidità
00:00 +22°C° 0 mm 3 m/s 670 mm Hg 47%
01:00 +23°C° 0 mm 2 m/s 670 mm Hg 48%
02:00 +21°C° 0 mm 2 m/s 670 mm Hg 49%
03:00 +21°C° 0 mm 2 m/s 670 mm Hg 50%
04:00 +23°C° 0 mm 2 m/s 670 mm Hg 48%
05:00 +23°C° 0 mm 1 m/s 671 mm Hg 47%
06:00 +24°C° 0 mm 1 m/s 671 mm Hg 45%
07:00 +27°C° 0 mm 1 m/s 671 mm Hg 41%
08:00 +29°C° 0 mm 1 m/s 672 mm Hg 36%
09:00 +31°C° 0 mm 2 m/s 672 mm Hg 31%
10:00 +32°C° 0 mm 2 m/s 672 mm Hg 28%
11:00 +35°C° 0 mm 2 m/s 672 mm Hg 25%
12:00 +37°C° 0 mm 3 m/s 672 mm Hg 22%
13:00 +37°C° 0 mm 3 m/s 672 mm Hg 21%
14:00 +38°C° 0 mm 4 m/s 671 mm Hg 19%
15:00 +40°C° 0 mm 4 m/s 671 mm Hg 18%
16:00 +39°C° 0.1 mm 5 m/s 671 mm Hg 23%
17:00 +36°C° 0.1 mm 5 m/s 671 mm Hg 28%
18:00 +35°C° 0.1 mm 5 m/s 670 mm Hg 33%
19:00 +33°C° 0 mm 4 m/s 671 mm Hg 39%
20:00 +29°C° 0 mm 4 m/s 671 mm Hg 44%
21:00 +27°C° 0 mm 4 m/s 671 mm Hg 49%
22:00 +26°C° 0 mm 3 m/s 671 mm Hg 50%
23:00 +25°C° 0 mm 3 m/s 670 mm Hg 50%

22 Giugno, Martedi

Tempo Temperatura Precipitazioni Vento Pressione Umidità
00:00 +24°C° 0 mm 2 m/s 670 mm Hg 51%
01:00 +23°C° 0 mm 2 m/s 670 mm Hg 51%
02:00 +23°C° 0 mm 2 m/s 670 mm Hg 52%
03:00 +21°C° 0 mm 2 m/s 670 mm Hg 52%
04:00 +23°C° 0 mm 2 m/s 671 mm Hg 50%
05:00 +24°C° 0 mm 1 m/s 671 mm Hg 47%
06:00 +25°C° 0 mm 1 m/s 672 mm Hg 45%
07:00 +27°C° 0 mm 1 m/s 672 mm Hg 40%
08:00 +29°C° 0 mm 1 m/s 672 mm Hg 36%
09:00 +32°C° 0 mm 1 m/s 672 mm Hg 31%
10:00 +34°C° 0 mm 2 m/s 672 mm Hg 28%
11:00 +36°C° 0 mm 2 m/s 672 mm Hg 26%
12:00 +37°C° 0 mm 2 m/s 672 mm Hg 24%
13:00 +38°C° 0 mm 3 m/s 672 mm Hg 22%
14:00 +40°C° 0 mm 4 m/s 672 mm Hg 21%
15:00 +40°C° 0 mm 4 m/s 671 mm Hg 20%
16:00 +39°C° 0 mm 5 m/s 671 mm Hg 23%
17:00 +37°C° 0 mm 5 m/s 671 mm Hg 27%
18:00 +36°C° 0 mm 5 m/s 671 mm Hg 30%
19:00 +33°C° 0 mm 5 m/s 671 mm Hg 36%
20:00 +29°C° 0 mm 4 m/s 671 mm Hg 42%
21:00 +26°C° 0 mm 4 m/s 671 mm Hg 48%
22:00 +26°C° 0 mm 4 m/s 671 mm Hg 47%
23:00 +25°C° 0 mm 3 m/s 671 mm Hg 45%

23 Giugno, Mercoledi

Tempo Temperatura Precipitazioni Vento Pressione Umidità
00:00 +24°C° 0 mm 3 m/s 671 mm Hg 44%
01:00 +22°C° 0 mm 3 m/s 671 mm Hg 44%
02:00 +23°C° 0 mm 2 m/s 671 mm Hg 43%
03:00 +21°C° 0 mm 2 m/s 671 mm Hg 42%
04:00 +23°C° 0 mm 2 m/s 671 mm Hg 41%
05:00 +24°C° 0 mm 1 m/s 672 mm Hg 39%
06:00 +25°C° 0 mm 1 m/s 672 mm Hg 38%
07:00 +27°C° 0 mm 1 m/s 672 mm Hg 34%
08:00 +29°C° 0 mm 2 m/s 673 mm Hg 29%
09:00 +32°C° 0 mm 2 m/s 673 mm Hg 25%
10:00 +34°C° 0 mm 2 m/s 673 mm Hg 22%
11:00 +36°C° 0 mm 3 m/s 673 mm Hg 19%
12:00 +38°C° 0 mm 3 m/s 673 mm Hg 16%
13:00 +40°C° 0 mm 4 m/s 673 mm Hg 15%
14:00 +41°C° 0 mm 4 m/s 672 mm Hg 13%
15:00 +42°C° 0 mm 4 m/s 672 mm Hg 12%
16:00 +40°C° 0 mm 4 m/s 671 mm Hg 17%
17:00 +39°C° 0 mm 5 m/s 671 mm Hg 22%
18:00 +37°C° 0 mm 5 m/s 671 mm Hg 28%
19:00 +34°C° 0 mm 5 m/s 671 mm Hg 32%
20:00 +32°C° 0 mm 4 m/s 671 mm Hg 36%
21:00 +28°C° 0 mm 4 m/s 671 mm Hg 40%
22:00 +27°C° 0 mm 3 m/s 671 mm Hg 40%
23:00 +26°C° 0 mm 3 m/s 671 mm Hg 40%

24 Giugno, Giovedi

Tempo Temperatura Precipitazioni Vento Pressione Umidità
00:00 +24°C° 0 mm 2 m/s 671 mm Hg 41%
01:00 +24°C° 0 mm 2 m/s 671 mm Hg 41%
02:00 +23°C° 0 mm 2 m/s 671 mm Hg 41%
03:00 +23°C° 0 mm 2 m/s 671 mm Hg 41%
04:00 +23°C° 0 mm 2 m/s 672 mm Hg 40%
05:00 +24°C° 0 mm 2 m/s 672 mm Hg 38%
06:00 +25°C° 0 mm 1 m/s 672 mm Hg 37%
07:00 +28°C° 0 mm 1 m/s 673 mm Hg 32%
08:00 +30°C° 0 mm 1 m/s 673 mm Hg 28%
09:00 +32°C° 0 mm 1 m/s 673 mm Hg 24%
10:00 +35°C° 0 mm 2 m/s 673 mm Hg 22%
11:00 +37°C° 0 mm 2 m/s 673 mm Hg 19%
12:00 +38°C° 0 mm 3 m/s 673 mm Hg 17%
13:00 +39°C° 0 mm 3 m/s 673 mm Hg 16%
14:00 +40°C° 0 mm 3 m/s 672 mm Hg 15%
15:00 +40°C° 0 mm 3 m/s 672 mm Hg 14%
16:00 +40°C° 0 mm 4 m/s 672 mm Hg 18%
17:00 +38°C° 0 mm 4 m/s 672 mm Hg 23%
18:00 +37°C° 0 mm 5 m/s 671 mm Hg 28%
19:00 +33°C° 0 mm 5 m/s 671 mm Hg 34%
20:00 +29°C° 0 mm 4 m/s 671 mm Hg 40%
21:00 +26°C° 0 mm 3 m/s 671 mm Hg 46%
22:00 +26°C° 0 mm 3 m/s 671 mm Hg 45%
23:00 +25°C° 0 mm 3 m/s 671 mm Hg 45%
Mostrare altro

Abbiamo bisogno del tuo consenso

Meteoprog e i nostri fornitori di servizi possono memorizzare e accedere a dati personali come cookie, identificatori di dispositivi o altre tecnologie simili sul tuo dispositivo e possono elaborare tali dati per personalizzare i contenuti e gli annunci, nonché fornire funzionalità dei social media e analizzarne il traffico.

  • Archiviare e/o accedere alle informazioni sul tuo dispositivo

    Cookie, identificatori di dispositivi o altre informazioni possono essere memorizzati o resi accessibili sul tuo dispositivo per le finalità sopra indicate.

  • Annunci e contenuti personalizzati, misurazione di annunci e contenuti, approfondimenti sul pubblico e sviluppo di prodotti

    Gli annunci e i contenuti possono essere personalizzati in base a un profilo. È possibile aggiungere più dati per personalizzare meglio annunci e contenuti. È possibile misurare il rendimento degli annunci e dei contenuti. È possibile ricavare informazioni sul pubblico che ha visto gli annunci e i contenuti. Tali dati possono essere utilizzati per sviluppare o migliorare l'esperienza, i sistemi e il software dell'utente.

Cliccando su “Accetto”, acconsenti all'uso di cookie, identificatori di dispositivo, web beacon o altre tecnologie simili. Puoi modificare le impostazioni nel browser del tuo dispositivo.

Per determinati scopi, è possibile fare affidamento su interessi legali, piuttosto che sul consenso. Puoi approfondire questo argomento consultando la nostra Informativa sulla privacy e sui cookie.